KF0TNT Weather Reports


Display with metric or nautical units.
time (UTC)temp
F
wind
direction
speed
MPH
gust
MPH
rain 1hr
in
rain 24hr
in
rain mn
in
humidity
%
barometer
mb
20260505140600 33 9 10.0 16.0 0.00 0.01 0.01 95 1015.1
20260505125012 37 30 11.0 15.0 0.00 0.01 0.01 91 1014.6
20260505124504 37 359 6.0 9.0 0.00 0.01 0.01 91 1014.1
20260505124000 38 356 5.0 7.0 0.00 0.01 0.01 91 1014.1
20260505123457 39 348 2.0 6.0 0.00 0.01 0.01 91 1014.1
20260505122952 39 2 7.0 7.0 0.00 0.01 0.01 90 1013.9
20260505122450 40 22 3.0 9.0 0.00 0.01 0.01 89 1013.8
20260505121947 41 336 4.0 6.0 0.00 0.01 0.01 88 1013.5
20260505121443 41 31 3.0 4.0 0.00 0.01 0.01 87 1013.5
20260505120939 41 184 0.0 2.0 0.00 0.01 0.01 85 1013.6
20260505120436 41 279 2.0 2.0 0.00 0.01 0.01 84 1013.6
20260505115935 41 310 3.0 3.0 0.00 0.01 0.01 82 1013.6
20260505115431 41 294 3.0 3.0 0.00 0.01 0.01 81 1013.6
20260505114929 41 330 2.0 4.0 0.00 0.01 0.01 80 1013.5
20260505114425 41 194 2.0 2.0 0.00 0.01 0.01 80 1013.8
20260505113921 41 141 2.0 5.0 0.00 0.01 0.01 80 1013.5
20260505113418 41 154 1.0 3.0 0.00 0.01 0.01 81 1013.9
20260505112914 41 213 2.0 4.0 0.00 0.01 0.01 82 1013.4
20260505112412 41 242 5.0 5.0 0.00 0.01 0.01 84 1013.0
20260505111908 41 221 4.0 5.0 0.00 0.01 0.01 87 1013.5
20260505111403 41 139 3.0 6.0 0.00 0.01 0.01 89 1013.3
20260505110859 41 150 2.0 8.0 0.00 0.01 0.01 91 1013.3
20260505110357 41 176 3.0 4.0 0.00 0.01 0.01 92 1013.5
20260505101827 41 157 3.0 4.0 0.00 0.01 0.01 95 1013.2
20260505101322 41 152 2.0 3.0 0.00 0.01 0.01 95 1012.9
20260505100818 41 60 2.0 2.0 0.00 0.01 0.01 94 1013.0
20260505100315 41 17 0.0 2.0 0.00 0.01 0.01 94 1013.0
20260505095810 41 40 1.0 3.0 0.00 0.01 0.01 94 1013.2
20260505095308 41 149 0.0 2.0 0.00 0.01 0.01 94 1013.0
20260505094804 41 50 0.0 4.0 0.00 0.01 0.01 95 1013.3
20260505094301 41 263 0.0 2.0 0.00 0.01 0.01 95 1013.0
20260505093756 41 81 0.0 2.0 0.00 0.01 0.01 95 1013.3
20260505093254 41 150 2.0 2.0 0.00 0.01 0.01 95 1012.9
20260505092751 41 153 0.0 2.0 0.00 0.01 0.01 95 1012.8
20260505092249 41 135 0.0 2.0 0.00 0.01 0.01 95 1012.8
20260505091746 41 176 1.0 2.0 0.00 0.01 0.01 95 1012.9
20260505091244 41 180 4.0 4.0 0.00 0.01 0.01 95 1013.2
20260505090742 41 160 2.0 3.0 0.00 0.01 0.01 94 1013.3
20260505090240 41 17 0.0 1.0 0.00 0.01 0.01 94 1013.0
20260505085737 41 132 0.0 2.0 0.00 0.01 0.01 93 1013.0
20260505085235 41 30 1.0 2.0 0.00 0.01 0.01 93 1013.4
20260505084732 41 31 0.0 1.0 0.00 0.01 0.01 93 1013.4
20260505084231 41 60 0.0 0.0 0.00 0.01 0.01 93 1013.5
20260505083728 41 55 0.0 1.0 0.00 0.01 0.01 93 1013.5
20260505083224 42 80 0.0 2.0 0.00 0.01 0.01 93 1013.6
20260505082720 42 125 0.0 1.0 0.00 0.01 0.01 93 1013.6
20260505082218 42 87 0.0 2.0 0.00 0.01 0.01 92 1013.8
20260505081713 42 12 2.0 3.0 0.00 0.01 0.01 93 1014.0
20260505081211 42 9 2.0 3.0 0.00 0.01 0.01 93 1013.9
20260505080708 42 7 0.0 2.0 0.00 0.01 0.01 92 1013.8
20260505080204 42 5 1.0 4.0 0.00 0.01 0.01 92 1013.9
20260505075700 42 45 3.0 4.0 0.00 0.01 0.01 93 1013.9
20260505075157 42 21 1.0 3.0 0.00 0.01 0.01 93 1014.1
20260505074654 42 12 2.0 4.0 0.00 0.01 0.01 93 1014.3
20260505074151 42 15 2.0 2.0 0.00 0.01 0.01 93 1014.1
20260505073649 42 327 2.0 3.0 0.00 0.01 0.01 93 1014.3
20260505073147 42 345 2.0 2.0 0.00 0.01 0.01 93 1014.4
20260505072642 42 7 1.0 5.0 0.00 0.01 0.01 93 1014.5
20260505072139 42 322 2.0 3.0 0.00 0.01 0.01 93 1014.4
20260505071634 42 339 2.0 2.0 0.00 0.01 0.01 93 1014.3
20260505071132 42 339 1.0 2.0 0.00 0.01 0.01 92 1014.4
20260505070629 42 356 1.0 1.0 0.02 0.01 0.01 92 1014.5
20260505070125 42 335 2.0 2.0 0.02 0.01 0.01 92 1014.6
20260505065621 42 74 1.0 5.0 0.00 0.01 0.01 92 1014.5
20260505065118 42 346 2.0 5.0 0.00 0.01 0.01 91 1014.9
20260505064615 42 27 2.0 4.0 0.00 0.01 0.01 91 1014.5
20260505064114 42 19 3.0 4.0 0.00 0.01 0.01 91 1014.6
20260505063610 42 19 2.0 3.0 0.00 0.01 0.01 91 1014.4
20260505063106 42 332 1.0 2.0 0.00 0.01 0.01 91 1014.6
20260505062603 42 328 1.0 2.0 0.02 0.01 0.01 91 1014.6
20260505062100 42 323 0.0 3.0 0.02 0.01 0.01 90 1014.4
20260505061557 43 314 2.0 2.0 0.00 0.00 0.00 90 1014.4
20260505061055 43 3 2.0 2.0 0.02 0.00 0.00 89 1014.6
20260505060553 43 6 0.0 3.0 0.05 0.00 0.00 89 1014.5
20260505060049 43 42 2.0 3.0 0.02 0.06 0.06 87 1014.6
20260505055544 43 8 0.0 2.0 0.00 0.06 0.06 87 1014.9
20260505055041 43 41 0.0 2.0 0.00 0.06 0.06 87 1014.9
20260505054539 43 26 2.0 2.0 0.00 0.06 0.06 86 1015.1
20260505054037 43 353 0.0 4.0 0.00 0.06 0.06 86 1014.6
20260505053534 43 9 2.0 5.0 0.00 0.06 0.06 86 1014.9
20260505053030 43 20 4.0 4.0 0.00 0.06 0.06 86 1014.6
20260505052527 43 42 0.0 3.0 0.02 0.06 0.06 86 1014.9
20260505052025 43 127 2.0 5.0 0.02 0.06 0.06 86 1014.6
20260505051521 43 346 3.0 5.0 0.00 0.06 0.06 87 1014.6
20260505051020 43 344 3.0 5.0 0.02 0.06 0.06 87 1014.6
20260505050518 43 314 4.0 5.0 0.02 0.06 0.06 87 1014.5
20260505041445 43 58 4.0 5.0 0.00 0.05 0.05 83 1014.3
20260505040943 43 17 2.0 3.0 0.00 0.05 0.05 83 1014.1
20260505040440 44 352 5.0 5.0 0.00 0.05 0.05 82 1014.1
20260505035936 44 33 4.0 10.0 0.00 0.05 0.05 81 1014.5
20260505035432 43 37 5.0 6.0 0.00 0.05 0.05 82 1013.9
20260505034930 43 334 8.0 10.0 0.00 0.05 0.05 83 1013.8
20260505034426 44 56 4.0 6.0 0.02 0.05 0.05 85 1013.9
20260505033923 44 34 4.0 4.0 0.02 0.05 0.05 85 1014.4
20260505033420 44 33 5.0 10.0 0.00 0.05 0.05 83 1014.1
20260505032918 44 299 6.0 6.0 0.00 0.05 0.05 84 1014.4
20260505032415 44 18 5.0 6.0 0.00 0.05 0.05 84 1014.4
20260505031912 44 16 4.0 7.0 0.02 0.05 0.05 85 1014.1
20260505031409 44 348 4.0 7.0 0.02 0.05 0.05 84 1014.0
20260505030905 44 25 4.0 7.0 0.02 0.04 0.04 84 1013.9
20260505030401 45 32 4.0 6.0 0.02 0.04 0.04 84 1013.5
20260505025857 45 35 6.0 7.0 0.02 0.04 0.04 82 1014.0
20260505025355 45 0 9.0 11.0 0.02 0.04 0.04 81 1014.1
20260505024853 46 38 4.0 6.0 0.00 0.04 0.04 81 1014.0
20260505024351 45 0 3.0 6.0 0.00 0.04 0.04 80 1014.3
20260505023847 46 1 2.0 6.0 0.00 0.04 0.04 81 1014.0
20260505023344 46 7 2.0 5.0 0.00 0.04 0.04 79 1014.0
20260505022842 46 325 2.0 3.0 0.00 0.04 0.04 80 1014.0
20260505022338 45 315 5.0 5.0 0.02 0.04 0.04 79 1013.9
20260505021836 45 323 2.0 3.0 0.02 0.04 0.04 80 1014.0
20260505021332 45 10 2.0 4.0 0.00 0.03 0.03 77 1013.9
20260505020828 45 31 2.0 4.0 0.02 0.03 0.03 78 1013.8
20260505020324 46 19 3.0 4.0 0.02 0.03 0.03 77 1014.1
20260505015821 46 24 2.0 4.0 0.00 0.03 0.03 77 1013.9
20260505015318 46 0 3.0 4.0 0.00 0.03 0.03 77 1013.6
20260505014815 46 10 2.0 8.0 0.02 0.03 0.03 75 1013.6
20260505014312 46 0 3.0 7.0 0.02 0.02 0.02 76 1013.6
20260505013808 47 316 3.0 8.0 0.05 0.02 0.02 72 1013.2
20260505013306 47 337 4.0 9.0 0.07 0.02 0.02 69 1013.5
20260505012804 47 8 5.0 7.0 0.05 0.01 0.01 69 1013.6
20260505012304 49 2 9.0 17.0 0.05 0.01 0.01 63 1013.8
20260505011757 50 19 12.0 23.0 0.00 0.00 0.00 59 1013.8
20260505011254 51 335 12.0 19.0 0.00 0.00 0.00 56 1013.5
20260505010750 51 335 10.0 16.0 0.00 0.00 0.00 51 1013.0
20260505010247 52 330 5.0 13.0 0.00 0.00 0.00 47 1013.2
20260505005743 52 337 6.0 12.0 0.00 0.00 0.00 46 1013.2
20260505005240 52 331 9.0 11.0 0.00 0.00 0.00 46 1012.9
20260505004738 52 348 6.0 13.0 0.00 0.00 0.00 47 1012.8
20260505004233 53 330 7.0 12.0 0.00 0.00 0.00 47 1012.7
20260505003731 53 338 6.0 17.0 0.00 0.00 0.00 46 1012.5
20260505003228 53 358 7.0 11.0 0.00 0.00 0.00 44 1012.3
20260505002725 53 35 8.0 11.0 0.00 0.00 0.00 44 1012.2
20260505002222 54 327 6.0 15.0 0.00 0.00 0.00 44 1012.3
20260505001720 54 39 5.0 16.0 0.00 0.00 0.00 43 1011.8
20260505001217 54 30 8.0 16.0 0.00 0.00 0.00 43 1012.3
20260505000714 55 33 7.0 18.0 0.00 0.00 0.00 42 1012.2
20260505000212 55 35 11.0 17.0 0.00 0.00 0.00 39 1012.3
20260504235708 57 17 11.0 17.0 0.00 0.00 0.00 38 1012.0
20260504235204 58 4 7.0 13.0 0.00 0.00 0.00 35 1011.7
20260504234702 58 12 5.0 13.0 0.00 0.00 0.00 34 1011.5
20260504234159 58 27 6.0 8.0 0.00 0.00 0.00 35 1011.8
20260504233654 58 4 3.0 10.0 0.00 0.00 0.00 35 1011.7
20260504233150 58 23 5.0 8.0 0.00 0.00 0.00 35 1012.2
20260504232649 59 11 6.0 13.0 0.00 0.00 0.00 34 1011.9
20260504232145 59 357 9.0 15.0 0.00 0.00 0.00 34 1012.0
20260504231642 59 26 6.0 15.0 0.00 0.00 0.00 32 1011.9
20260504231138 59 356 5.0 8.0 0.00 0.00 0.00 34 1011.8
20260504230634 59 21 6.0 8.0 0.00 0.00 0.00 34 1011.9
20260504230133 59 36 9.0 11.0 0.00 0.00 0.00 33 1011.7
20260504225631 60 18 8.0 16.0 0.00 0.00 0.00 32 1011.7
20260504225127 59 22 6.0 11.0 0.00 0.00 0.00 31 1011.7
20260504224624 59 26 10.0 12.0 0.00 0.00 0.00 32 1011.7
20260504224120 60 20 7.0 15.0 0.00 0.00 0.00 32 1011.4
20260504223618 60 305 13.0 17.0 0.00 0.00 0.00 31 1011.2
20260504223113 60 16 13.0 15.0 0.00 0.00 0.00 31 1010.9
20260504222611 60 321 7.0 21.0 0.00 0.00 0.00 31 1011.0
20260504222108 61 313 14.0 17.0 0.00 0.00 0.00 30 1011.2
20260504221605 61 343 9.0 13.0 0.00 0.00 0.00 30 1011.3
20260504221102 62 3 7.0 17.0 0.00 0.00 0.00 29 1011.0
20260504220558 62 0 8.0 9.0 0.00 0.00 0.00 25 1011.2
20260504220056 62 343 7.0 11.0 0.00 0.00 0.00 26 1011.0
20260504215552 62 354 9.0 14.0 0.00 0.00 0.00 26 1011.0
20260504215049 62 358 8.0 15.0 0.00 0.00 0.00 26 1011.2
20260504214544 62 20 9.0 13.0 0.00 0.00 0.00 26 1011.0
20260504214042 62 6 8.0 13.0 0.00 0.00 0.00 25 1011.3
20260504213538 63 6 7.0 16.0 0.00 0.00 0.00 25 1011.2
20260504213035 63 21 11.0 16.0 0.00 0.00 0.00 25 1011.3
20260504212531 63 16 6.0 13.0 0.00 0.00 0.00 25 1011.0
20260504212029 63 48 5.0 18.0 0.00 0.00 0.00 24 1011.4
20260504211525 63 26 11.0 17.0 0.00 0.00 0.00 25 1011.2
20260504211022 63 319 11.0 15.0 0.00 0.00 0.00 24 1011.3
20260504210519 63 4 3.0 9.0 0.00 0.00 0.00 25 1011.2
20260504210016 62 4 8.0 14.0 0.00 0.00 0.00 26 1011.3
20260504205514 62 19 9.0 15.0 0.00 0.00 0.00 26 1011.3
20260504205012 62 8 9.0 16.0 0.00 0.00 0.00 26 1011.4
20260504204510 62 327 8.0 18.0 0.00 0.00 0.00 26 1011.4
20260504204009 63 355 15.0 19.0 0.00 0.00 0.00 27 1011.3
20260504203506 63 344 5.0 13.0 0.00 0.00 0.00 25 1011.3
20260504203002 63 0 11.0 13.0 0.00 0.00 0.00 24 1011.7
20260504202458 64 321 8.0 15.0 0.00 0.00 0.00 24 1011.3
20260504201955 64 16 5.0 13.0 0.00 0.00 0.00 24 1011.7
20260504201453 66 321 9.0 14.0 0.00 0.00 0.00 23 1011.3
20260504200950 67 340 6.0 14.0 0.00 0.00 0.00 22 1011.5
20260504200447 66 247 7.0 13.0 0.00 0.00 0.00 22 1011.4
20260504195943 66 216 6.0 15.0 0.00 0.00 0.00 22 1011.5
20260504195439 65 219 7.0 9.0 0.00 0.00 0.00 23 1011.7
20260504194936 64 252 4.0 12.0 0.00 0.00 0.00 22 1011.8
20260504194432 64 178 3.0 11.0 0.00 0.00 0.00 21 1011.9
20260504193928 65 232 6.0 12.0 0.00 0.00 0.00 21 1011.9
20260504193425 65 241 8.0 11.0 0.00 0.00 0.00 21 1011.8
20260504192924 65 214 6.0 9.0 0.00 0.00 0.00 21 1011.9
20260504192421 65 163 6.0 6.0 0.00 0.00 0.00 20 1011.7
20260504191920 65 154 4.0 4.0 0.00 0.00 0.00 19 1011.8
20260504191418 65 198 0.0 2.0 0.00 0.00 0.00 18 1011.4
20260504190913 65 33 0.0 2.0 0.00 0.00 0.00 18 1011.8
20260504190409 65 297 2.0 3.0 0.00 0.00 0.00 18 1011.7
20260504185905 64 312 5.0 6.0 0.00 0.00 0.00 19 1011.8
20260504150843 57 253 6.0 10.0 0.00 0.00 0.00 33 1014.3
20260504150339 57 244 5.0 8.0 0.00 0.00 0.00 33 1014.4